Year,Month,Day,Hour,Minute,Value (Times are PST for temperature in C)
2021,06,26,00,00,24.30
2021,06,26,00,01,24.20
2021,06,26,00,02,24.20
2021,06,26,00,03,24.20
2021,06,26,00,04,24.10
2021,06,26,00,05,24.10
2021,06,26,00,06,24.10
2021,06,26,00,07,24.10
2021,06,26,00,08,24.10
2021,06,26,00,09,24.00
2021,06,26,00,10,24.10
2021,06,26,00,11,24.00
2021,06,26,00,12,24.10
2021,06,26,00,13,24.10
2021,06,26,00,14,24.10
2021,06,26,00,15,24.10
2021,06,26,00,16,24.10
2021,06,26,00,17,24.10
2021,06,26,00,18,24.10
2021,06,26,00,19,24.10
2021,06,26,00,20,24.10
2021,06,26,00,21,24.10
2021,06,26,00,22,24.10
2021,06,26,00,23,24.10
2021,06,26,00,24,24.00
2021,06,26,00,25,24.00
2021,06,26,00,26,23.90
2021,06,26,00,27,23.90
2021,06,26,00,28,23.80
2021,06,26,00,29,23.80
2021,06,26,00,30,23.80
2021,06,26,00,31,23.70
2021,06,26,00,32,23.70
2021,06,26,00,33,23.60
2021,06,26,00,34,23.60
2021,06,26,00,35,23.50
2021,06,26,00,36,23.50
2021,06,26,00,37,23.40
2021,06,26,00,38,23.40
2021,06,26,00,39,23.30
2021,06,26,00,40,23.30
2021,06,26,00,41,23.30
2021,06,26,00,42,23.30
2021,06,26,00,43,23.20
2021,06,26,00,44,23.20
2021,06,26,00,45,23.10
2021,06,26,00,46,23.10
2021,06,26,00,47,23.10
2021,06,26,00,48,23.10
2021,06,26,00,49,23.00
2021,06,26,00,50,23.00
2021,06,26,00,51,22.90
2021,06,26,00,52,22.90
2021,06,26,00,53,22.90
2021,06,26,00,54,22.90
2021,06,26,00,55,22.90
2021,06,26,00,56,22.80
2021,06,26,00,57,22.80
2021,06,26,00,58,22.90
2021,06,26,00,59,22.80
2021,06,26,01,00,22.80
2021,06,26,01,01,22.80
2021,06,26,01,02,22.80
2021,06,26,01,03,22.80
2021,06,26,01,04,22.80
2021,06,26,01,05,22.80
2021,06,26,01,06,22.80
2021,06,26,01,07,22.80
2021,06,26,01,08,22.80
2021,06,26,01,09,22.80
2021,06,26,01,10,22.80
2021,06,26,01,11,22.80
2021,06,26,01,12,22.80
2021,06,26,01,13,22.80
2021,06,26,01,14,22.80
2021,06,26,01,15,22.80
2021,06,26,01,16,22.80
2021,06,26,01,17,22.80
2021,06,26,01,18,22.90
2021,06,26,01,19,22.90
2021,06,26,01,20,22.90
2021,06,26,01,21,22.90
2021,06,26,01,22,23.00
2021,06,26,01,23,23.00
2021,06,26,01,24,23.00
2021,06,26,01,25,23.00
2021,06,26,01,26,23.00
2021,06,26,01,27,23.00
2021,06,26,01,28,23.00
2021,06,26,01,29,23.10
2021,06,26,01,30,23.10
2021,06,26,01,31,23.20
2021,06,26,01,32,23.20
2021,06,26,01,33,23.30
2021,06,26,01,34,23.40
2021,06,26,01,35,23.50
2021,06,26,01,36,23.60
2021,06,26,01,37,23.60
2021,06,26,01,38,23.60
2021,06,26,01,39,23.70
2021,06,26,01,40,23.70
2021,06,26,01,41,23.80
2021,06,26,01,42,23.80
2021,06,26,01,43,23.90
2021,06,26,01,44,23.90
2021,06,26,01,45,23.90
2021,06,26,01,46,23.90
2021,06,26,01,47,24.00
2021,06,26,01,48,24.00
2021,06,26,01,49,24.00
2021,06,26,01,50,24.10
2021,06,26,01,51,24.10
2021,06,26,01,52,24.10
2021,06,26,01,53,24.10
2021,06,26,01,54,24.20
2021,06,26,01,55,24.20
2021,06,26,01,56,24.20
2021,06,26,01,57,24.30
2021,06,26,01,58,24.30
2021,06,26,01,59,24.40
2021,06,26,02,00,24.60
2021,06,26,02,01,24.60
2021,06,26,02,02,24.70
2021,06,26,02,03,24.80
2021,06,26,02,04,24.80
2021,06,26,02,05,24.90
2021,06,26,02,06,24.90
2021,06,26,02,07,24.90
2021,06,26,02,08,24.90
2021,06,26,02,09,24.90
2021,06,26,02,10,24.90
2021,06,26,02,11,24.90
2021,06,26,02,12,24.90
2021,06,26,02,13,24.90
2021,06,26,02,14,24.90
2021,06,26,02,15,24.90
2021,06,26,02,16,25.00
2021,06,26,02,17,25.00
2021,06,26,02,18,25.00
2021,06,26,02,19,25.00
2021,06,26,02,20,25.00
2021,06,26,02,21,25.10
2021,06,26,02,22,25.00
2021,06,26,02,23,25.00
2021,06,26,02,24,25.00
2021,06,26,02,25,25.00
2021,06,26,02,26,24.90
2021,06,26,02,27,24.90
2021,06,26,02,28,24.90
2021,06,26,02,29,24.90
2021,06,26,02,30,24.80
2021,06,26,02,31,24.80
2021,06,26,02,32,24.80
2021,06,26,02,33,24.80
2021,06,26,02,34,24.70
2021,06,26,02,35,24.70
2021,06,26,02,36,24.70
2021,06,26,02,37,24.70
2021,06,26,02,38,24.70
2021,06,26,02,39,24.60
2021,06,26,02,40,24.60
2021,06,26,02,41,24.60
2021,06,26,02,42,24.60
2021,06,26,02,43,24.50
2021,06,26,02,44,24.60
2021,06,26,02,45,24.50
2021,06,26,02,46,24.60
2021,06,26,02,47,24.60
2021,06,26,02,48,24.70
2021,06,26,02,49,24.70
2021,06,26,02,50,24.80
2021,06,26,02,51,24.80
2021,06,26,02,52,24.90
2021,06,26,02,53,25.00
2021,06,26,02,54,25.00
2021,06,26,02,55,25.10
2021,06,26,02,56,25.20
2021,06,26,02,57,25.20
2021,06,26,02,58,25.20
2021,06,26,02,59,25.30
2021,06,26,03,00,25.30
2021,06,26,03,01,25.30
2021,06,26,03,02,25.30
2021,06,26,03,03,25.40
2021,06,26,03,04,25.40
2021,06,26,03,05,25.40
2021,06,26,03,06,25.50
2021,06,26,03,07,25.50
2021,06,26,03,08,25.60
2021,06,26,03,09,25.60
2021,06,26,03,10,25.70
2021,06,26,03,11,25.70
2021,06,26,03,12,25.70
2021,06,26,03,13,25.70
2021,06,26,03,14,25.80
2021,06,26,03,15,25.80
2021,06,26,03,16,25.80
2021,06,26,03,17,25.80
2021,06,26,03,18,25.70
2021,06,26,03,19,25.70
2021,06,26,03,20,25.60
2021,06,26,03,21,25.60
2021,06,26,03,22,25.60
2021,06,26,03,23,25.60
2021,06,26,03,24,25.60
2021,06,26,03,25,25.50
2021,06,26,03,26,25.50
2021,06,26,03,27,25.50
2021,06,26,03,28,25.50
2021,06,26,03,29,25.40
2021,06,26,03,30,25.40
2021,06,26,03,31,25.40
2021,06,26,03,32,25.40
2021,06,26,03,33,25.40
2021,06,26,03,34,25.30
2021,06,26,03,35,25.30
2021,06,26,03,36,25.30
2021,06,26,03,37,25.30
2021,06,26,03,38,25.30
2021,06,26,03,39,25.30
2021,06,26,03,40,25.30
2021,06,26,03,41,25.30
2021,06,26,03,42,25.30
2021,06,26,03,43,25.30
2021,06,26,03,44,25.30
2021,06,26,03,45,25.30
2021,06,26,03,46,25.30
2021,06,26,03,47,25.30
2021,06,26,03,48,25.30
2021,06,26,03,49,25.30
2021,06,26,03,50,25.30
2021,06,26,03,51,25.20
2021,06,26,03,52,25.20
2021,06,26,03,53,25.20
2021,06,26,03,54,25.20
2021,06,26,03,55,25.20
2021,06,26,03,56,25.20
2021,06,26,03,57,25.20
2021,06,26,03,58,25.20
2021,06,26,03,59,25.20
2021,06,26,04,00,25.20
2021,06,26,04,01,25.20
2021,06,26,04,02,25.30
2021,06,26,04,03,25.30
2021,06,26,04,04,25.20
2021,06,26,04,05,25.20
2021,06,26,04,06,25.20
2021,06,26,04,07,25.20
2021,06,26,04,08,25.20
2021,06,26,04,09,25.20
2021,06,26,04,10,25.20
2021,06,26,04,11,25.20
2021,06,26,04,12,25.10
2021,06,26,04,13,25.10
2021,06,26,04,14,25.00
2021,06,26,04,15,24.90
2021,06,26,04,16,24.90
2021,06,26,04,17,24.80
2021,06,26,04,18,24.80
2021,06,26,04,19,24.70
2021,06,26,04,20,24.70
2021,06,26,04,21,24.70
2021,06,26,04,22,24.60
2021,06,26,04,23,24.50
2021,06,26,04,24,24.40
2021,06,26,04,25,24.40
2021,06,26,04,26,24.40
2021,06,26,04,27,24.30
2021,06,26,04,28,24.30
2021,06,26,04,29,24.30
2021,06,26,04,30,24.20
2021,06,26,04,31,24.20
2021,06,26,04,32,24.10
2021,06,26,04,33,24.10
2021,06,26,04,34,24.10
2021,06,26,04,35,24.00
2021,06,26,04,36,24.00
2021,06,26,04,37,23.90
2021,06,26,04,38,23.90
2021,06,26,04,39,23.80
2021,06,26,04,40,23.80
2021,06,26,04,41,23.80
2021,06,26,04,42,23.70
2021,06,26,04,43,23.70
2021,06,26,04,44,23.60
2021,06,26,04,45,23.60
2021,06,26,04,46,23.60
2021,06,26,04,47,23.50
2021,06,26,04,48,23.50
2021,06,26,04,49,23.40
2021,06,26,04,50,23.40
2021,06,26,04,51,23.30
2021,06,26,04,52,23.30
2021,06,26,04,53,23.30
2021,06,26,04,54,23.30
2021,06,26,04,55,23.30
2021,06,26,04,56,23.20
2021,06,26,04,57,23.20
2021,06,26,04,58,23.20
2021,06,26,04,59,23.10
2021,06,26,05,00,23.10
2021,06,26,05,01,23.10
2021,06,26,05,02,23.00
2021,06,26,05,03,23.00
2021,06,26,05,04,22.90
2021,06,26,05,05,22.90
2021,06,26,05,06,22.90
2021,06,26,05,07,22.90
2021,06,26,05,08,22.80
2021,06,26,05,09,22.80
2021,06,26,05,10,22.80
2021,06,26,05,11,22.80
2021,06,26,05,12,22.70
2021,06,26,05,13,22.70
2021,06,26,05,14,22.70
2021,06,26,05,15,22.70
2021,06,26,05,16,22.60
2021,06,26,05,17,22.60
2021,06,26,05,18,22.60
2021,06,26,05,19,22.60
2021,06,26,05,20,22.60
2021,06,26,05,21,22.60
2021,06,26,05,22,22.60
2021,06,26,05,23,22.60
2021,06,26,05,24,22.70
2021,06,26,05,25,22.60
2021,06,26,05,26,22.60
2021,06,26,05,27,22.60
2021,06,26,05,28,22.60
2021,06,26,05,29,22.60
2021,06,26,05,30,22.60
2021,06,26,05,31,22.60
2021,06,26,05,32,22.60
2021,06,26,05,33,22.60
2021,06,26,05,34,22.50
2021,06,26,05,35,22.50
2021,06,26,05,36,22.50
2021,06,26,05,37,22.40
2021,06,26,05,38,22.50
2021,06,26,05,39,22.40
2021,06,26,05,40,22.40
2021,06,26,05,41,22.40
2021,06,26,05,42,22.40
2021,06,26,05,43,22.40
2021,06,26,05,44,22.30
2021,06,26,05,45,22.30
2021,06,26,05,46,22.30
2021,06,26,05,47,22.30
2021,06,26,05,48,22.30
2021,06,26,05,49,22.30
2021,06,26,05,50,22.30
2021,06,26,05,51,22.30
2021,06,26,05,52,22.20
2021,06,26,05,53,22.20
2021,06,26,05,54,22.20
2021,06,26,05,55,22.20
2021,06,26,05,56,22.20
2021,06,26,05,57,22.20
2021,06,26,05,58,22.20
2021,06,26,05,59,22.20
2021,06,26,06,00,22.10
2021,06,26,06,01,22.10
2021,06,26,06,02,22.10
2021,06,26,06,03,22.10
2021,06,26,06,04,22.10
2021,06,26,06,05,22.10
2021,06,26,06,06,22.10
2021,06,26,06,07,22.00
2021,06,26,06,08,22.00
2021,06,26,06,09,22.00
2021,06,26,06,10,22.00
2021,06,26,06,11,22.00
2021,06,26,06,12,22.00
2021,06,26,06,13,21.90
2021,06,26,06,14,21.90
2021,06,26,06,15,21.90
2021,06,26,06,16,21.90
2021,06,26,06,17,21.90
2021,06,26,06,18,21.90
2021,06,26,06,19,21.80
2021,06,26,06,20,21.90
2021,06,26,06,21,21.80
2021,06,26,06,22,21.80
2021,06,26,06,23,21.80
2021,06,26,06,24,21.80
2021,06,26,06,25,21.80
2021,06,26,06,26,21.80
2021,06,26,06,27,21.80
2021,06,26,06,28,21.80
2021,06,26,06,29,21.70
2021,06,26,06,30,21.70
2021,06,26,06,31,21.70
2021,06,26,06,32,21.70
2021,06,26,06,33,21.70
2021,06,26,06,34,21.70
2021,06,26,06,35,21.60
2021,06,26,06,36,21.60
2021,06,26,06,37,21.60
2021,06,26,06,38,21.60
2021,06,26,06,39,21.60
2021,06,26,06,40,21.60
2021,06,26,06,41,21.50
2021,06,26,06,42,21.50
2021,06,26,06,43,21.50
2021,06,26,06,44,21.50
2021,06,26,06,45,21.50
2021,06,26,06,46,21.50
2021,06,26,06,47,21.50
2021,06,26,06,48,21.40
2021,06,26,06,49,21.40
2021,06,26,06,50,21.40
2021,06,26,06,51,21.40
2021,06,26,06,52,21.40
2021,06,26,06,53,21.40
2021,06,26,06,54,21.40
2021,06,26,06,55,21.40
2021,06,26,06,56,21.40
2021,06,26,06,57,21.40
2021,06,26,06,58,21.40
2021,06,26,06,59,21.30
2021,06,26,07,00,21.30
2021,06,26,07,01,21.30
2021,06,26,07,02,21.30
2021,06,26,07,03,21.30
2021,06,26,07,04,21.30
2021,06,26,07,05,21.30
2021,06,26,07,06,21.30
2021,06,26,07,07,21.30
2021,06,26,07,08,21.30
2021,06,26,07,09,21.30
2021,06,26,07,10,21.30
2021,06,26,07,11,21.30
2021,06,26,07,12,21.30
2021,06,26,07,13,21.30
2021,06,26,07,14,21.30
2021,06,26,07,15,21.30
2021,06,26,07,16,21.30
2021,06,26,07,17,21.30
2021,06,26,07,18,21.30
2021,06,26,07,19,21.30
2021,06,26,07,20,21.30
2021,06,26,07,21,21.30
2021,06,26,07,22,21.30
2021,06,26,07,23,21.30
2021,06,26,07,24,21.30
2021,06,26,07,25,21.30
2021,06,26,07,26,21.30
2021,06,26,07,27,21.30
2021,06,26,07,28,21.30
2021,06,26,07,29,21.30
2021,06,26,07,30,21.30
2021,06,26,07,31,21.30
2021,06,26,07,32,21.30
2021,06,26,07,33,21.30
2021,06,26,07,34,21.30
2021,06,26,07,35,21.30
2021,06,26,07,36,21.30
2021,06,26,07,37,21.30
2021,06,26,07,38,21.30
2021,06,26,07,39,21.30
2021,06,26,07,40,21.30
2021,06,26,07,41,21.30
2021,06,26,07,42,21.30
2021,06,26,07,43,21.30
2021,06,26,07,44,21.30
2021,06,26,07,45,21.40
2021,06,26,07,46,21.40
2021,06,26,07,47,21.40
2021,06,26,07,48,21.40
2021,06,26,07,49,21.40
2021,06,26,07,50,21.40
2021,06,26,07,51,21.40
2021,06,26,07,52,21.40
2021,06,26,07,53,21.50
2021,06,26,07,54,21.50
2021,06,26,07,55,21.50
2021,06,26,07,56,21.50
2021,06,26,07,57,21.50
2021,06,26,07,58,21.60
2021,06,26,07,59,21.60
2021,06,26,08,00,21.60
2021,06,26,08,01,21.60
2021,06,26,08,02,21.60
2021,06,26,08,03,21.60
2021,06,26,08,04,21.60
2021,06,26,08,05,21.60
2021,06,26,08,06,21.60
2021,06,26,08,07,21.70
2021,06,26,08,08,21.70
2021,06,26,08,09,21.70
2021,06,26,08,10,21.70
2021,06,26,08,11,21.70
2021,06,26,08,12,21.80
2021,06,26,08,13,21.80
2021,06,26,08,14,21.80
2021,06,26,08,15,21.80
2021,06,26,08,16,21.80
2021,06,26,08,17,21.90
2021,06,26,08,18,21.90
2021,06,26,08,19,21.90
2021,06,26,08,20,21.90
2021,06,26,08,21,22.00
2021,06,26,08,22,22.00
2021,06,26,08,23,22.00
2021,06,26,08,24,22.00
2021,06,26,08,25,22.00
2021,06,26,08,26,22.00
2021,06,26,08,27,22.10
2021,06,26,08,28,22.10
2021,06,26,08,29,22.10
2021,06,26,08,30,22.10
2021,06,26,08,31,22.10
2021,06,26,08,32,22.10
2021,06,26,08,33,22.10
2021,06,26,08,34,22.20
2021,06,26,08,35,22.20
2021,06,26,08,36,22.20
2021,06,26,08,37,22.20
2021,06,26,08,38,22.30
2021,06,26,08,39,22.30
2021,06,26,08,40,22.30
2021,06,26,08,41,22.30
2021,06,26,08,42,22.40
2021,06,26,08,43,22.40
2021,06,26,08,44,22.40
2021,06,26,08,45,22.40
2021,06,26,08,46,22.50
2021,06,26,08,47,22.50
2021,06,26,08,48,22.50
2021,06,26,08,49,22.50
2021,06,26,08,50,22.50
2021,06,26,08,51,22.50
2021,06,26,08,52,22.50
2021,06,26,08,53,22.60
2021,06,26,08,54,22.60
2021,06,26,08,55,22.60
2021,06,26,08,56,22.60
2021,06,26,08,57,22.70
2021,06,26,08,58,22.70
2021,06,26,08,59,22.70
2021,06,26,09,00,22.80
2021,06,26,09,01,22.80
2021,06,26,09,02,22.80
2021,06,26,09,03,22.80
2021,06,26,09,04,22.80
2021,06,26,09,05,22.90
2021,06,26,09,06,22.90
2021,06,26,09,07,22.90
2021,06,26,09,08,22.90
2021,06,26,09,09,23.00
2021,06,26,09,10,23.00
2021,06,26,09,11,23.10
2021,06,26,09,12,23.10
2021,06,26,09,13,23.10
2021,06,26,09,14,23.10
2021,06,26,09,15,23.10
2021,06,26,09,16,23.20
2021,06,26,09,17,23.20
2021,06,26,09,18,23.20
2021,06,26,09,19,23.30
2021,06,26,09,20,23.30
2021,06,26,09,21,23.30
2021,06,26,09,22,23.40
2021,06,26,09,23,23.40
2021,06,26,09,24,23.40
2021,06,26,09,25,23.40
2021,06,26,09,26,23.40
2021,06,26,09,27,23.40
2021,06,26,09,28,23.50
2021,06,26,09,29,23.50
2021,06,26,09,30,23.60
2021,06,26,09,31,23.70
2021,06,26,09,32,23.70
2021,06,26,09,33,23.80
2021,06,26,09,34,23.90
2021,06,26,09,35,23.90
2021,06,26,09,36,24.00
2021,06,26,09,37,24.10
2021,06,26,09,38,24.20
2021,06,26,09,39,24.30
2021,06,26,09,40,24.30
2021,06,26,09,41,24.40
2021,06,26,09,42,24.50
2021,06,26,09,43,24.50
2021,06,26,09,44,24.60
2021,06,26,09,45,24.60
2021,06,26,09,46,24.70
2021,06,26,09,47,24.70
2021,06,26,09,48,24.80
2021,06,26,09,49,24.80
2021,06,26,09,50,24.90
2021,06,26,09,51,25.00
2021,06,26,09,52,25.00
2021,06,26,09,53,25.10
2021,06,26,09,54,25.20
2021,06,26,09,55,25.20
2021,06,26,09,56,25.30
2021,06,26,09,57,25.30
2021,06,26,09,58,25.40
2021,06,26,09,59,25.40
2021,06,26,10,00,25.50
2021,06,26,10,01,25.50
2021,06,26,10,02,25.60
2021,06,26,10,03,25.60
2021,06,26,10,04,25.70
2021,06,26,10,05,25.70
2021,06,26,10,06,25.80
2021,06,26,10,07,25.80
2021,06,26,10,08,25.80
2021,06,26,10,09,25.90
2021,06,26,10,10,26.00
2021,06,26,10,11,26.10
2021,06,26,10,12,26.20
2021,06,26,10,13,26.30
2021,06,26,10,14,26.40
2021,06,26,10,15,26.50
2021,06,26,10,16,26.60
2021,06,26,10,17,26.60
2021,06,26,10,18,26.70
2021,06,26,10,19,26.70
2021,06,26,10,20,26.80
2021,06,26,10,21,26.80
2021,06,26,10,22,26.90
2021,06,26,10,23,26.90
2021,06,26,10,24,26.90
2021,06,26,10,25,27.00
2021,06,26,10,26,27.10
2021,06,26,10,27,27.10
2021,06,26,10,28,27.10
2021,06,26,10,29,27.10
2021,06,26,10,30,27.20
2021,06,26,10,31,27.20
2021,06,26,10,32,27.20
2021,06,26,10,33,27.30
2021,06,26,10,34,27.30
2021,06,26,10,35,27.40
2021,06,26,10,36,27.40
2021,06,26,10,37,27.40
2021,06,26,10,38,27.40
2021,06,26,10,39,27.50
2021,06,26,10,40,27.50
2021,06,26,10,41,27.60
2021,06,26,10,42,27.60
2021,06,26,10,43,27.70
2021,06,26,10,44,27.70
2021,06,26,10,45,27.70
2021,06,26,10,46,27.70
2021,06,26,10,47,27.60
2021,06,26,10,48,27.60
2021,06,26,10,49,27.60
2021,06,26,10,50,27.60
2021,06,26,10,51,27.70
2021,06,26,10,52,27.70
2021,06,26,10,53,27.70
2021,06,26,10,54,27.70
2021,06,26,10,55,27.80
2021,06,26,10,56,27.80
2021,06,26,10,57,27.80
2021,06,26,10,58,27.80
2021,06,26,10,59,27.90
2021,06,26,11,00,27.90
2021,06,26,11,01,27.90
2021,06,26,11,02,27.90
2021,06,26,11,03,27.90
2021,06,26,11,04,27.90
2021,06,26,11,05,28.00
2021,06,26,11,06,27.90
2021,06,26,11,07,28.00
2021,06,26,11,08,28.00
2021,06,26,11,09,28.00
2021,06,26,11,10,28.00
2021,06,26,11,11,28.00
2021,06,26,11,12,28.00
2021,06,26,11,13,28.00
2021,06,26,11,14,28.00
2021,06,26,11,15,28.00
2021,06,26,11,16,28.00
2021,06,26,11,17,28.00
2021,06,26,11,18,28.10
2021,06,26,11,19,28.10
2021,06,26,11,20,28.10
2021,06,26,11,21,28.10
2021,06,26,11,22,28.10
2021,06,26,11,23,28.10
2021,06,26,11,24,28.20
2021,06,26,11,25,28.20
2021,06,26,11,26,28.20
2021,06,26,11,27,28.30
2021,06,26,11,28,28.30
2021,06,26,11,29,28.40
2021,06,26,11,30,28.40
2021,06,26,11,31,28.40
2021,06,26,11,32,28.50
2021,06,26,11,33,28.50
2021,06,26,11,34,28.50
2021,06,26,11,35,28.60
2021,06,26,11,36,28.60
2021,06,26,11,37,28.60
2021,06,26,11,38,28.60
2021,06,26,11,39,28.60
2021,06,26,11,40,28.60
2021,06,26,11,41,28.70
2021,06,26,11,42,28.70
2021,06,26,11,43,28.70
2021,06,26,11,44,28.70
2021,06,26,11,45,28.70
2021,06,26,11,46,28.70
2021,06,26,11,47,28.70
2021,06,26,11,48,28.80
2021,06,26,11,49,28.80
2021,06,26,11,50,28.80
2021,06,26,11,51,28.80
2021,06,26,11,52,28.90
2021,06,26,11,53,28.90
2021,06,26,11,54,28.90
2021,06,26,11,55,29.00
2021,06,26,11,56,29.00
2021,06,26,11,57,29.00
2021,06,26,11,58,29.10
2021,06,26,11,59,29.10
2021,06,26,12,00,29.10
2021,06,26,12,01,29.10
2021,06,26,12,02,29.20
2021,06,26,12,03,29.20
2021,06,26,12,04,29.20
2021,06,26,12,05,29.20
2021,06,26,12,06,29.20
2021,06,26,12,07,29.20
2021,06,26,12,08,29.20
2021,06,26,12,09,29.20
2021,06,26,12,10,29.20
2021,06,26,12,11,29.20
2021,06,26,12,12,29.20
2021,06,26,12,13,29.20
2021,06,26,12,14,29.20
2021,06,26,12,15,29.30
2021,06,26,12,16,29.30
2021,06,26,12,17,29.30
2021,06,26,12,18,29.30
2021,06,26,12,19,29.30
2021,06,26,12,20,29.30
2021,06,26,12,21,29.30
2021,06,26,12,22,29.40
2021,06,26,12,23,29.40
2021,06,26,12,24,29.40
2021,06,26,12,25,29.40
2021,06,26,12,26,29.40
2021,06,26,12,27,29.40
2021,06,26,12,28,29.40
2021,06,26,12,29,29.40
2021,06,26,12,30,29.40
2021,06,26,12,31,29.50
2021,06,26,12,32,29.50
2021,06,26,12,33,29.50
2021,06,26,12,34,29.60
2021,06,26,12,35,29.60
2021,06,26,12,36,29.60
2021,06,26,12,37,29.70
2021,06,26,12,38,29.70
2021,06,26,12,39,29.70
2021,06,26,12,40,29.80
2021,06,26,12,41,29.90
2021,06,26,12,42,29.90
2021,06,26,12,43,29.90
2021,06,26,12,44,30.00
2021,06,26,12,45,30.00
2021,06,26,12,46,30.10
2021,06,26,12,47,30.10
2021,06,26,12,48,30.10
2021,06,26,12,49,30.20
2021,06,26,12,50,30.20
2021,06,26,12,51,30.30
2021,06,26,12,52,30.30
2021,06,26,12,53,30.40
2021,06,26,12,54,30.40
2021,06,26,12,55,30.50
2021,06,26,12,56,30.50
2021,06,26,12,57,30.50
2021,06,26,12,58,30.50
2021,06,26,12,59,30.60
2021,06,26,13,00,30.60
2021,06,26,13,01,30.60
2021,06,26,13,02,30.70
2021,06,26,13,03,30.70
2021,06,26,13,04,30.80
2021,06,26,13,05,30.90
2021,06,26,13,06,30.90
2021,06,26,13,07,31.00
2021,06,26,13,08,31.10
2021,06,26,13,09,31.10
2021,06,26,13,10,31.20
2021,06,26,13,11,31.30
2021,06,26,13,12,31.30
2021,06,26,13,13,31.40
2021,06,26,13,14,31.40
2021,06,26,13,15,31.40
2021,06,26,13,16,31.40
2021,06,26,13,17,31.40
2021,06,26,13,18,31.50
2021,06,26,13,19,31.50
2021,06,26,13,20,31.60
2021,06,26,13,21,31.60
2021,06,26,13,22,31.70
2021,06,26,13,23,31.80
2021,06,26,13,24,31.80
2021,06,26,13,25,31.90
2021,06,26,13,26,32.00
2021,06,26,13,27,32.10
2021,06,26,13,28,32.20
2021,06,26,13,29,32.30
2021,06,26,13,30,32.40
2021,06,26,13,31,32.60
2021,06,26,13,32,32.60
2021,06,26,13,33,32.70
2021,06,26,13,34,32.70
2021,06,26,13,35,32.70
2021,06,26,13,36,32.80
2021,06,26,13,37,32.80
2021,06,26,13,38,32.80
2021,06,26,13,39,32.90
2021,06,26,13,40,32.90
2021,06,26,13,41,32.90
2021,06,26,13,42,33.00
2021,06,26,13,43,33.10
2021,06,26,13,44,33.10
2021,06,26,13,45,33.20
2021,06,26,13,46,33.20
2021,06,26,13,47,33.20
2021,06,26,13,48,33.20
2021,06,26,13,49,33.30
2021,06,26,13,50,33.30
2021,06,26,13,51,33.30
2021,06,26,13,52,33.40
2021,06,26,13,53,33.40
2021,06,26,13,54,33.50
2021,06,26,13,55,33.60
2021,06,26,13,56,33.60
2021,06,26,13,57,33.70
2021,06,26,13,58,33.70
2021,06,26,13,59,33.80
2021,06,26,14,00,33.80
2021,06,26,14,01,33.80
2021,06,26,14,02,33.90
2021,06,26,14,03,33.90
2021,06,26,14,04,34.00
2021,06,26,14,05,34.10
2021,06,26,14,06,34.10
2021,06,26,14,07,34.20
2021,06,26,14,08,34.20
2021,06,26,14,09,34.20
2021,06,26,14,10,34.20
2021,06,26,14,11,34.30
2021,06,26,14,12,34.30
2021,06,26,14,13,34.40
2021,06,26,14,14,34.40
2021,06,26,14,15,34.40
2021,06,26,14,16,34.40
2021,06,26,14,17,34.40
2021,06,26,14,18,34.40
2021,06,26,14,19,34.40
2021,06,26,14,20,34.40
2021,06,26,14,21,34.40
2021,06,26,14,22,34.40
2021,06,26,14,23,34.40
2021,06,26,14,24,34.40
2021,06,26,14,25,34.40
2021,06,26,14,26,34.40
2021,06,26,14,27,34.30
2021,06,26,14,28,34.30
2021,06,26,14,29,34.30
2021,06,26,14,30,34.30
2021,06,26,14,31,34.30
2021,06,26,14,32,34.30
2021,06,26,14,33,34.30
2021,06,26,14,34,34.30
2021,06,26,14,35,34.30
2021,06,26,14,36,34.30
2021,06,26,14,37,34.40
2021,06,26,14,38,34.40
2021,06,26,14,39,34.40
2021,06,26,14,40,34.50
2021,06,26,14,41,34.50
2021,06,26,14,42,34.50
2021,06,26,14,43,34.50
2021,06,26,14,44,34.50
2021,06,26,14,45,34.50
2021,06,26,14,46,34.50
2021,06,26,14,47,34.50
2021,06,26,14,48,34.40
2021,06,26,14,49,34.40
2021,06,26,14,50,34.40
2021,06,26,14,51,34.40
2021,06,26,14,52,34.50
2021,06,26,14,53,34.50
2021,06,26,14,54,34.50
2021,06,26,14,55,34.50
2021,06,26,14,56,34.60
2021,06,26,14,57,34.60
2021,06,26,14,58,34.60
2021,06,26,14,59,34.60
2021,06,26,15,00,34.70
2021,06,26,15,01,34.70
2021,06,26,15,02,34.70
2021,06,26,15,03,34.80
2021,06,26,15,04,34.80
2021,06,26,15,05,34.80
2021,06,26,15,06,34.80
2021,06,26,15,07,34.90
2021,06,26,15,08,34.90
2021,06,26,15,09,35.00
2021,06,26,15,10,35.10
2021,06,26,15,11,35.10
2021,06,26,15,12,35.20
2021,06,26,15,13,35.30
2021,06,26,15,14,35.40
2021,06,26,15,15,35.40
2021,06,26,15,16,35.40
2021,06,26,15,17,35.40
2021,06,26,15,18,35.50
2021,06,26,15,19,35.50
2021,06,26,15,20,35.40
2021,06,26,15,21,35.40
2021,06,26,15,22,35.40
2021,06,26,15,23,35.50
2021,06,26,15,24,35.50
2021,06,26,15,25,35.50
2021,06,26,15,26,35.50
2021,06,26,15,27,35.40
2021,06,26,15,28,35.40
2021,06,26,15,29,35.40
2021,06,26,15,30,35.40
2021,06,26,15,31,35.40
2021,06,26,15,32,35.50
2021,06,26,15,33,35.50
2021,06,26,15,34,35.50
2021,06,26,15,35,35.50
2021,06,26,15,36,35.50
2021,06,26,15,37,35.50
2021,06,26,15,38,35.40
2021,06,26,15,39,35.50
2021,06,26,15,40,35.40
2021,06,26,15,41,35.40
2021,06,26,15,42,35.40
2021,06,26,15,43,35.40
2021,06,26,15,44,35.40
2021,06,26,15,45,35.40
2021,06,26,15,46,35.40
2021,06,26,15,47,35.40
2021,06,26,15,48,35.40
2021,06,26,15,49,35.30
2021,06,26,15,50,35.40
2021,06,26,15,51,35.40
2021,06,26,15,52,35.40
2021,06,26,15,53,35.40
2021,06,26,15,54,35.40
2021,06,26,15,55,35.30
2021,06,26,15,56,35.30
2021,06,26,15,57,35.30
2021,06,26,15,58,35.30
2021,06,26,15,59,35.30
2021,06,26,16,00,35.30
2021,06,26,16,01,35.30
2021,06,26,16,02,35.30
2021,06,26,16,03,35.30
2021,06,26,16,04,35.30
2021,06,26,16,05,35.30
2021,06,26,16,06,35.30
2021,06,26,16,07,35.30
2021,06,26,16,08,35.30
2021,06,26,16,09,35.30
2021,06,26,16,10,35.40
2021,06,26,16,11,35.40
2021,06,26,16,12,35.40
2021,06,26,16,13,35.40
2021,06,26,16,14,35.50
2021,06,26,16,15,35.50
2021,06,26,16,16,35.60
2021,06,26,16,17,35.60
2021,06,26,16,18,35.60
2021,06,26,16,19,35.60
2021,06,26,16,20,35.60
2021,06,26,16,21,35.60
2021,06,26,16,22,35.60
2021,06,26,16,23,35.70
2021,06,26,16,24,35.60
2021,06,26,16,25,35.60
2021,06,26,16,26,35.70
2021,06,26,16,27,35.70
2021,06,26,16,28,35.70
2021,06,26,16,29,35.70
2021,06,26,16,30,35.70
2021,06,26,16,31,35.70
2021,06,26,16,32,35.70
2021,06,26,16,33,35.70
2021,06,26,16,34,35.80
2021,06,26,16,35,35.80
2021,06,26,16,36,35.80
2021,06,26,16,37,35.80
2021,06,26,16,38,35.90
2021,06,26,16,39,35.90
2021,06,26,16,40,35.90
2021,06,26,16,41,35.90
2021,06,26,16,42,35.90
2021,06,26,16,43,35.90
2021,06,26,16,44,35.90
2021,06,26,16,45,35.90
2021,06,26,16,46,35.80
2021,06,26,16,47,35.80
2021,06,26,16,48,35.80
2021,06,26,16,49,35.80
2021,06,26,16,50,35.80
2021,06,26,16,51,35.80
2021,06,26,16,52,35.80
2021,06,26,16,53,35.80
2021,06,26,16,54,35.80
2021,06,26,16,55,35.80
2021,06,26,16,56,35.80
2021,06,26,16,57,35.80
2021,06,26,16,58,35.90
2021,06,26,16,59,35.90
2021,06,26,17,00,35.90
2021,06,26,17,01,35.90
2021,06,26,17,02,35.90
2021,06,26,17,03,36.00
2021,06,26,17,04,36.10
2021,06,26,17,05,36.10
2021,06,26,17,06,36.10
2021,06,26,17,07,36.20
2021,06,26,17,08,36.20
2021,06,26,17,09,36.20
2021,06,26,17,10,36.30
2021,06,26,17,11,36.30
2021,06,26,17,12,36.30
2021,06,26,17,13,36.30
2021,06,26,17,14,36.30
2021,06,26,17,15,36.30
2021,06,26,17,16,36.40
2021,06,26,17,17,36.40
2021,06,26,17,18,36.40
2021,06,26,17,19,36.40